Location: Belvedere Heights
(33.9836°N, 117.3109°W)
Time: 20:57:02
(UTC+00:00)

Meteor 1-14 Rocket - Pass Details

Date: 07 December 2023
Orbit: 834 x 918 km, 81.3° (Epoch: 29 February)

Event Time Altitude Azimuth Distance (km) Brightness Sun altitude
Rises 02:02:05 0° 4° (N) 3,386 7.1 -16.7°
Reaches altitude 10° 02:04:49 10° 16° (NNE) 2,450 6.3 -17.2°
Enters shadow 02:07:07 21° 35° (NE) 1,801 5.5 -17.7°
Exits shadow 02:14:04 11° 133° (SE) 2,364 6.2 -19.1°
Drops below altitude 10° 02:14:22 10° 135° (SE) 2,462 6.3 -19.1°
Sets 02:17:06 0° 146° (SE) 3,405 7.2 -19.7°
